Regional Weather Roundup
Issued by NWS Charleston, WV

Home | Current Version | Previous Version | Graphics & Text | Print | Product List | Glossary On
Versions: 1 2 3 4 5 6 7 8 9 10 11 12 13 14 15 16 17 18 19 20 21 22 23 24 25 26 27 28 29 30 31 32 33 34 35 36 37 38 39 40 41 42
000
ASUS41 KRLX 190010
RWRRLX
West Virginia Regional Weather Roundup
National Weather Service Charleston WV
700 PM EST SAT FEB 18 2017

Note: "fair" indicates few or no clouds below 12,000 feet with no
significant weather and/or obstructions to visibility.

WVZ003-190100-
Northern Panhandle of West Virginia

CITY           SKY/WX    TMP DP  RH WIND       PRES   REMARKS
WHEELING       PTCLDY    59  31  34 SW12      29.79S
$$

WVZ009-190100-
Northwest West Virginia

CITY           SKY/WX    TMP DP  RH WIND       PRES   REMARKS
PARKERSBURG    LGT RAIN  49  46  90 S8        29.90R FOG
$$

WVZ006-190100-
Western West Virginia

CITY           SKY/WX    TMP DP  RH WIND       PRES   REMARKS
HUNTINGTON     CLOUDY    50  40  68 SW5       29.90R
$$

WVZ015-190100-
West Central West Virginia

CITY           SKY/WX    TMP DP  RH WIND       PRES   REMARKS
CHARLESTON     CLOUDY    57  34  41 NW3       29.87F
$$

WVZ022-031-190100-
North Central West Virginia

CITY           SKY/WX    TMP DP  RH WIND       PRES   REMARKS
CLARKSBURG     CLOUDY    55  37  50 SW6       29.85F
MORGANTOWN     CLOUDY    60  33  36 SW8       29.84S
$$

WVZ025-035-042-045-190100-
Southern West Virginia

CITY           SKY/WX    TMP DP  RH WIND       PRES   REMARKS
BECKLEY        CLOUDY    50  31  48 CALM      29.89S
LOGAN          CLOUDY    55  32  41 CALM      29.87S
BLUEFIELD      CLOUDY    51  31  46 N3        29.90S
LEWISBURG      MOCLDY    53  31  44 CALM      29.89S
$$

WVZ047-190100-
Northern Mountains of West Virginia

CITY           SKY/WX    TMP DP  RH WIND       PRES   REMARKS
ELKINS         CLOUDY    53  33  46 SW6       29.88S
$$

WVZ052-190100-
Eastern Panhandle of West Virginia

CITY           SKY/WX    TMP DP  RH WIND       PRES   REMARKS
MARTINSBURG    CLOUDY    61  31  32 SW9       29.77R
PETERSBURG     PTCLDY    63  36  37 NW7       29.83R
$$




USA.gov is the U.S. government's official web portal to all federal, state and local government web resources and services.